Location: Tucson
(32.2217°N, 110.9265°W)
Time: 08:08:15
(UTC-07:00)

Tiros 1 - Pass Details

Date: 26 October 2021
Orbit: 629 x 664 km, 48.4° (Epoch: 27 November)

Event Time Altitude Azimuth Distance (km) Brightness Sun altitude
Rises 16:08:53 0° 308° (NW) 2,949 10.9 16.9°
Reaches altitude 10° 16:11:14 10° 307° (NW) 2,031 10.1 16.5°
Maximum altitude 16:15:55 78° 222° (SW) 653 7.7 15.6°
Drops below altitude 10° 16:20:31 10° 136° (SE) 2,003 9.5 14.7°
Sets 16:22:49 0° 135° (SE) 2,904 10.3 14.3°
